Weather History for KVTA - September, 2014

Change the Weather History Date:

Monday, September 1, 2014

  Actual Average Record
Temperature  
Mean Temperature 74 °F -  
Max Temperature 82 °F 80 °F - (-1)
Min Temperature 66 °F 56 °F - (-1)
Cooling Degree Days 9    
Growing Degree Days 24 (Base 50)    
Moisture  
Dew Point 69 °F    
Average Humidity 86    
Maximum Humidity 97    
Minimum Humidity 67    
Precipitation  
Precipitation 0.02 in - - ()
Sea Level Pressure  
Sea Level Pressure 29.98 in    
Wind  
Wind Speed 4 mph (SSW)    
Max Wind Speed 16 mph    
Max Gust Speed 24 mph    
Visibility 9 miles    
Events Rain    
Averages and records for this station are not official NWS values.
T = Trace of Precipitation, MM = Missing Value Source: NWS Daily Summary

Daily Weather History Graph

Daily Weather History Graph

Search for Another Location

Airport or City:

Trip Planner

Search our weather history database for the weather conditions in past years. The results will help you decide how hot, cold, wet, or windy it might be!

Date:

Astronomy

Sep. 01, 2014 Rise Set
Actual Time 6:57 AM EDT 8:01 PM EDT
Civil Twilight 6:29 AM EDT 8:29 PM EDT
Nautical Twilight 5:56 AM EDT 9:02 PM EDT
Astronomical Twilight 5:22 AM EDT 9:36 PM EDT
Moon 1:42 PM EDT No Moon Set
Length of Visible Light 13h 59m
Length of Day
13h 03m
Waxing Crescent, 42% of the Moon is Illuminated
Sep 1
Waxing Crescent
Sep 2
First Quarter
Sep 8
Full
Sep 15
Last Quarter
Sep 24
New

Hourly Weather History & Observations

Time (EDT) Temp. Heat Index Dew Point Humidity Pressure Visibility Wind Dir Wind Speed Gust Speed Precip Events Conditions
12:08 AM 69.1 °F - 66.9 °F 93% 30.00 in 6.0 mi SE 3.5 mph - N/A   Partly Cloudy
12:54 AM 69.1 °F - 66.9 °F 93% 29.99 in 10.0 mi Calm Calm - N/A   Clear
1:13 AM 70.0 °F - 68.0 °F 93% 30.00 in 10.0 mi Calm Calm - N/A   Scattered Clouds
1:34 AM 66.9 °F - 66.0 °F 97% 30.00 in 1.8 mi Calm Calm - N/A   Mostly Cloudy
1:44 AM 66.9 °F - 64.9 °F 93% 30.01 in 0.8 mi Calm Calm - N/A   Mostly Cloudy
1:51 AM 68.0 °F - 66.2 °F 94% 30.01 in 2.0 mi Calm Calm - N/A   Mostly Cloudy
1:54 AM 68.0 °F - 66.0 °F 93% 29.99 in 3.0 mi Calm Calm - N/A   Mostly Cloudy
2:50 AM 71.6 °F - 69.8 °F 94% 30.01 in 10.0 mi Calm Calm - 0.00 in   Overcast
2:54 AM 71.1 °F - 69.1 °F 93% 29.99 in 10.0 mi Calm Calm - 0.00 in   Overcast
2:56 AM 71.1 °F - 69.1 °F 93% 30.01 in 10.0 mi Calm Calm - N/A   Overcast
3:06 AM 71.1 °F - 69.1 °F 93% 30.01 in 10.0 mi Calm Calm - N/A   Overcast
3:35 AM 71.1 °F - 69.1 °F 93% 30.01 in 10.0 mi SSW 3.5 mph - N/A   Overcast
3:52 AM 71.6 °F - 69.8 °F 94% 30.01 in 10.0 mi Calm Calm - N/A   Overcast
3:54 AM 71.1 °F - 69.1 °F 93% 29.99 in 10.0 mi South 4.6 mph - N/A   Overcast
4:40 AM 71.1 °F - 68.0 °F 90% 30.00 in 10.0 mi Calm Calm - N/A   Overcast
4:54 AM 71.1 °F - 68.0 °F 90% 29.99 in 10.0 mi Calm Calm - N/A   Overcast
5:10 AM 71.1 °F - 68.0 °F 90% 30.00 in 10.0 mi SSW 3.5 mph - N/A   Overcast
5:28 AM 71.1 °F - 68.0 °F 90% 30.01 in 10.0 mi SSW 4.6 mph - N/A   Overcast
6:17 AM 71.1 °F - 68.0 °F 90% 30.01 in 10.0 mi SW 4.6 mph - N/A   Overcast
6:45 AM 71.1 °F - 68.0 °F 90% 30.01 in 10.0 mi SSW 4.6 mph - N/A   Overcast
6:54 AM 71.1 °F - 68.0 °F 90% 30.00 in 10.0 mi SSW 4.6 mph - N/A   Overcast
8:54 AM 72.0 °F - 69.1 °F 91% 30.00 in 4.0 mi SSW 4.6 mph - 0.00 in   Overcast
9:54 AM 73.0 °F - 70.0 °F 90% 30.00 in 7.0 mi SSW 6.9 mph - N/A   Overcast
10:13 AM 75.0 °F - 71.1 °F 87% 30.02 in 9.0 mi SSW 8.1 mph - N/A   Overcast
10:20 AM 75.0 °F - 71.1 °F 87% 30.02 in 9.0 mi SSW 6.9 mph - N/A   Overcast
10:49 AM 77.0 °F - 71.6 °F 83% 30.01 in 9.0 mi SW 10.4 mph - N/A   Overcast
10:54 AM 77.0 °F - 71.1 °F 82% 29.99 in 10.0 mi SW 10.4 mph - N/A   Overcast
11:54 AM 79.0 °F - 71.1 °F 77% 29.98 in 10.0 mi SSW 10.4 mph - N/A   Overcast
12:25 PM 78.1 °F - 70.0 °F 76% 29.99 in 4.0 mi SSW 10.4 mph - 0.02 in Rain Rain
12:54 PM 80.1 °F 83.6 °F 71.1 °F 74% 29.96 in 10.0 mi SSW 12.7 mph - 0.02 in   Mostly Cloudy
1:54 PM 80.1 °F 83.6 °F 71.1 °F 74% 29.95 in 10.0 mi SW 12.7 mph 20.7 mph 0.00 in   Partly Cloudy
2:54 PM 81.0 °F 84.9 °F 71.1 °F 72% 29.92 in 10.0 mi South 16.1 mph 24.2 mph N/A   Scattered Clouds
4:54 PM 82.9 °F 87.5 °F 71.1 °F 67% 29.89 in 10.0 mi SSW 9.2 mph - N/A   Mostly Cloudy
5:54 PM 82.0 °F 86.3 °F 71.1 °F 69% 29.88 in 10.0 mi SSW 9.2 mph - N/A   Partly Cloudy
6:54 PM 81.0 °F 84.9 °F 71.1 °F 72% 29.88 in 10.0 mi SSW 5.8 mph - N/A   Partly Cloudy
7:54 PM 79.0 °F - 70.0 °F 74% 29.90 in 10.0 mi SSW 13.8 mph 17.3 mph N/A   Mostly Cloudy
8:54 PM 75.9 °F - 70.0 °F 82% 29.91 in 10.0 mi SSW 6.9 mph - N/A   Partly Cloudy
9:54 PM 75.0 °F - 70.0 °F 84% 29.92 in 10.0 mi SSW 5.8 mph - N/A   Mostly Cloudy
10:54 PM 75.0 °F - 70.0 °F 84% 29.93 in 10.0 mi SSW 5.8 mph - N/A   Mostly Cloudy
11:54 PM 73.9 °F - 70.0 °F 87% 29.93 in 10.0 mi SSW 5.8 mph - N/A   Scattered Clouds